Hourly Weather San Ignacio

Today, 17 April, Saturday

Time Temperature Precipitation Wind Pressure Humidity
00:00 +25°C° 0 mm 1 mps 747 mmHg 96%
01:00 +24°C° 0 mm 1 mps 747 mmHg 96%
02:00 +24°C° 0 mm 1 mps 746 mmHg 96%
03:00 +24°C° 0 mm 1 mps 746 mmHg 97%
04:00 +24°C° 0 mm 1 mps 746 mmHg 97%
05:00 +24°C° 0 mm 1 mps 747 mmHg 96%
06:00 +22°C° 0 mm 0 mps 747 mmHg 96%
07:00 +28°C° 0 mm 1 mps 747 mmHg 80%
08:00 +31°C° 0 mm 1 mps 747 mmHg 65%
09:00 +35°C° 0 mm 1 mps 748 mmHg 49%
10:00 +38°C° 0 mm 2 mps 747 mmHg 42%
11:00 +40°C° 0 mm 2 mps 746 mmHg 35%
12:00 +42°C° 0 mm 2 mps 746 mmHg 29%
13:00 +42°C° 0 mm 2 mps 745 mmHg 28%
14:00 +44°C° 0 mm 3 mps 744 mmHg 27%
15:00 +44°C° 0 mm 3 mps 743 mmHg 26%
16:00 +39°C° 0.1 mm 3 mps 744 mmHg 41%
17:00 +36°C° 0.1 mm 3 mps 744 mmHg 55%
18:00 +31°C° 0.1 mm 3 mps 745 mmHg 69%
19:00 +31°C° 0 mm 3 mps 745 mmHg 73%
20:00 +30°C° 0 mm 2 mps 746 mmHg 77%
21:00 +29°C° 0 mm 2 mps 747 mmHg 81%
22:00 +28°C° 0 mm 1 mps 747 mmHg 84%
23:00 +28°C° 0 mm 1 mps 747 mmHg 87%

Tomorrow, 18 April, Sunday

Time Temperature Precipitation Wind Pressure Humidity
00:00 +25°C° 0 mm 0 mps 748 mmHg 90%
01:00 +25°C° 0.1 mm 0 mps 748 mmHg 92%
02:00 +24°C° 0.1 mm 0 mps 747 mmHg 94%
03:00 +24°C° 0.1 mm 0 mps 747 mmHg 97%
04:00 +24°C° 0.1 mm 0 mps 748 mmHg 96%
05:00 +24°C° 0.1 mm 0 mps 748 mmHg 95%
06:00 +24°C° 0.1 mm 0 mps 748 mmHg 94%
07:00 +28°C° 0 mm 1 mps 749 mmHg 86%
08:00 +29°C° 0 mm 1 mps 749 mmHg 78%
09:00 +31°C° 0 mm 1 mps 750 mmHg 70%
10:00 +32°C° 0.1 mm 1 mps 749 mmHg 62%
11:00 +34°C° 0.1 mm 1 mps 749 mmHg 55%
12:00 +36°C° 0.1 mm 1 mps 748 mmHg 48%
13:00 +36°C° 0.1 mm 1 mps 747 mmHg 49%
14:00 +36°C° 0.1 mm 1 mps 746 mmHg 50%
15:00 +36°C° 0.1 mm 2 mps 746 mmHg 51%
16:00 +32°C° 7.2 mm 2 mps 746 mmHg 66%
17:00 +29°C° 7.2 mm 2 mps 746 mmHg 81%
18:00 +26°C° 7.2 mm 2 mps 747 mmHg 96%
19:00 +25°C° 2.5 mm 1 mps 748 mmHg 96%
20:00 +24°C° 2.5 mm 1 mps 749 mmHg 97%
21:00 +24°C° 2.5 mm 1 mps 750 mmHg 97%
22:00 +24°C° 0.4 mm 1 mps 750 mmHg 98%
23:00 +24°C° 0.4 mm 1 mps 750 mmHg 98%

Day after tomorrow, 19 April, Monday

Time Temperature Precipitation Wind Pressure Humidity
00:00 +22°C° 0.4 mm 0 mps 750 mmHg 98%
01:00 +22°C° 0.1 mm 0 mps 750 mmHg 98%
02:00 +23°C° 0.1 mm 1 mps 749 mmHg 98%
03:00 +23°C° 0.1 mm 1 mps 749 mmHg 99%
04:00 +23°C° 0 mm 1 mps 750 mmHg 98%
05:00 +23°C° 0 mm 1 mps 750 mmHg 98%
06:00 +23°C° 0 mm 1 mps 750 mmHg 98%
07:00 +25°C° 0 mm 1 mps 750 mmHg 88%
08:00 +28°C° 0 mm 1 mps 751 mmHg 77%
09:00 +30°C° 0 mm 1 mps 751 mmHg 67%
10:00 +32°C° 0.1 mm 1 mps 750 mmHg 61%
11:00 +34°C° 0.1 mm 1 mps 750 mmHg 55%
12:00 +35°C° 0.1 mm 1 mps 749 mmHg 50%
13:00 +35°C° 0.1 mm 1 mps 749 mmHg 49%
14:00 +33°C° 0.1 mm 0 mps 748 mmHg 49%
15:00 +33°C° 0.1 mm 0 mps 747 mmHg 48%
16:00 +31°C° 0 mm 0 mps 747 mmHg 54%
17:00 +30°C° 0 mm 0 mps 747 mmHg 59%
18:00 +29°C° 0 mm 0 mps 747 mmHg 64%
19:00 +29°C° 0.1 mm 1 mps 748 mmHg 72%
20:00 +28°C° 0.1 mm 1 mps 748 mmHg 79%
21:00 +26°C° 0.1 mm 1 mps 749 mmHg 87%
22:00 +26°C° 0.3 mm 1 mps 749 mmHg 89%
23:00 +23°C° 0.3 mm 0 mps 749 mmHg 91%

20 April, Tuesday

Time Temperature Precipitation Wind Pressure Humidity
00:00 +23°C° 0.3 mm 0 mps 749 mmHg 93%
01:00 +23°C° 0.1 mm 0 mps 749 mmHg 94%
02:00 +22°C° 0.1 mm 0 mps 748 mmHg 94%
03:00 +22°C° 0.1 mm 0 mps 748 mmHg 94%
04:00 +22°C° 0 mm 0 mps 749 mmHg 94%
05:00 +22°C° 0 mm 0 mps 749 mmHg 94%
06:00 +22°C° 0 mm 0 mps 749 mmHg 93%
07:00 +25°C° 0 mm 0 mps 750 mmHg 82%
08:00 +30°C° 0 mm 1 mps 750 mmHg 70%
09:00 +32°C° 0 mm 1 mps 750 mmHg 58%
10:00 +34°C° 0 mm 1 mps 750 mmHg 51%
11:00 +36°C° 0 mm 1 mps 749 mmHg 45%
12:00 +39°C° 0 mm 1 mps 748 mmHg 39%
13:00 +37°C° 0 mm 1 mps 748 mmHg 40%
14:00 +37°C° 0 mm 1 mps 747 mmHg 42%
15:00 +37°C° 0 mm 2 mps 746 mmHg 43%
16:00 +35°C° 0 mm 2 mps 747 mmHg 53%
17:00 +33°C° 0 mm 3 mps 747 mmHg 63%
18:00 +30°C° 0 mm 3 mps 747 mmHg 73%
19:00 +29°C° 0.1 mm 3 mps 748 mmHg 79%
20:00 +28°C° 0.1 mm 2 mps 749 mmHg 86%
21:00 +27°C° 0.1 mm 2 mps 749 mmHg 92%
22:00 +26°C° 0 mm 2 mps 749 mmHg 94%
23:00 +26°C° 0 mm 1 mps 750 mmHg 96%

21 April, Wednesday

Time Temperature Precipitation Wind Pressure Humidity
00:00 +26°C° 0 mm 1 mps 750 mmHg 98%
01:00 +24°C° 0.1 mm 0 mps 750 mmHg 98%
02:00 +24°C° 0.1 mm 0 mps 750 mmHg 97%
03:00 +24°C° 0.1 mm 0 mps 749 mmHg 97%
04:00 +24°C° 0 mm 0 mps 750 mmHg 97%
05:00 +24°C° 0 mm 0 mps 750 mmHg 97%
06:00 +23°C° 0 mm 0 mps 750 mmHg 97%
07:00 +25°C° 0.3 mm 0 mps 751 mmHg 91%
08:00 +26°C° 0.3 mm 0 mps 751 mmHg 84%
09:00 +28°C° 0.3 mm 0 mps 751 mmHg 78%
10:00 +30°C° 1.3 mm 1 mps 751 mmHg 80%
11:00 +30°C° 1.3 mm 1 mps 751 mmHg 82%
12:00 +30°C° 1.3 mm 1 mps 751 mmHg 84%
13:00 +30°C° 1.6 mm 1 mps 750 mmHg 85%
14:00 +30°C° 1.6 mm 2 mps 750 mmHg 87%
15:00 +30°C° 1.6 mm 2 mps 749 mmHg 88%
16:00 +29°C° 0.7 mm 2 mps 749 mmHg 90%
17:00 +28°C° 0.7 mm 2 mps 749 mmHg 93%
18:00 +27°C° 0.7 mm 2 mps 750 mmHg 96%
19:00 +26°C° 0.2 mm 1 mps 750 mmHg 97%
20:00 +26°C° 0.2 mm 1 mps 751 mmHg 97%
21:00 +26°C° 0.2 mm 1 mps 752 mmHg 98%
22:00 +26°C° 0.1 mm 1 mps 752 mmHg 98%
23:00 +25°C° 0.1 mm 1 mps 751 mmHg 98%

22 April, Thursday

Time Temperature Precipitation Wind Pressure Humidity
00:00 +25°C° 0.1 mm 1 mps 751 mmHg 98%
01:00 +25°C° 0 mm 1 mps 751 mmHg 98%
02:00 +25°C° 0 mm 1 mps 751 mmHg 98%
03:00 +23°C° 0 mm 0 mps 750 mmHg 99%
04:00 +23°C° 0.1 mm 0 mps 751 mmHg 99%
05:00 +23°C° 0.1 mm 0 mps 751 mmHg 99%
06:00 +23°C° 0.1 mm 0 mps 752 mmHg 98%
07:00 +26°C° 0.1 mm 1 mps 752 mmHg 90%
08:00 +28°C° 0.1 mm 2 mps 752 mmHg 81%
09:00 +30°C° 0.1 mm 2 mps 753 mmHg 72%
10:00 +31°C° 0 mm 3 mps 752 mmHg 63%
11:00 +34°C° 0 mm 3 mps 752 mmHg 54%
12:00 +35°C° 0 mm 4 mps 751 mmHg 45%
13:00 +35°C° 0 mm 4 mps 751 mmHg 43%
14:00 +35°C° 0 mm 4 mps 751 mmHg 41%
15:00 +35°C° 0 mm 4 mps 750 mmHg 40%
16:00 +33°C° 0 mm 3 mps 750 mmHg 49%
17:00 +30°C° 0 mm 3 mps 751 mmHg 58%
18:00 +28°C° 0 mm 3 mps 751 mmHg 66%
19:00 +27°C° 0 mm 2 mps 751 mmHg 76%
20:00 +25°C° 0 mm 2 mps 752 mmHg 86%
21:00 +24°C° 0 mm 1 mps 752 mmHg 95%
22:00 +24°C° 0 mm 1 mps 752 mmHg 95%
23:00 +24°C° 0 mm 1 mps 752 mmHg 94%
Show more